Date String (YYYY-MM-DD hh:mm:ss) UTC,Instrument flags,absolute air pressure of the measurement (hPa),sample flow rate (lpm),inlet stack bypass flow (lpm),air temperature of the measurement (°C),ambient temperature measured by the external sensor (°C),aerosol sample conditioner tube jacket temperature (°C),OPC LED temperature (°C),internal box temperature (°C),relative humidity of the measurement (%),span deviation,mass concentration of particles derived from Lorenz-Mie calculation of OPC scattering (μg/m³),mass concentration of particles derived from Lorenz-Mie calculation of OPC scattering (μg/m³),mass concentration of particles derived from Lorenz-Mie calculation of OPC scattering (μg/m³)
DateTimeUTC,F1_M11,P_M11,Q1_M11,Q2_M11,T1_M11,T2_M11,T3_M11,T4_M11,T5_M11,U1_M11,ZSPAN_M11,X0_M11,X2_M11,X1_M11
2024-04-22 21:00:00,SystemResetWarning,0823.4,5.01,000.00,025.3,024.7,000.0,033.4,027.3,017.3,0000.0,0009.77,0003.53,0002.50
2024-04-22 21:01:00,SystemResetWarning,0823.4,5.00,000.00,025.4,024.8,000.0,033.5,027.4,016.8,0000.0,0010.15,0003.54,0002.51
2024-04-22 21:02:00,SystemResetWarning,0823.5,4.99,000.00,025.5,024.9,000.0,033.5,027.4,016.9,0000.0,0009.67,0003.53,0002.55
2024-04-22 21:03:00,SystemResetWarning,0823.5,5.00,000.00,025.5,025.0,000.0,033.6,027.5,016.1,0000.0,0008.40,0003.54,0002.58
2024-04-22 21:04:00,SystemResetWarning,0823.6,4.99,000.00,025.6,024.6,000.0,033.6,027.2,015.6,0000.0,0007.92,0003.51,0002.59
2024-04-22 21:05:00,SystemResetWarning,0823.8,5.00,000.00,025.2,022.5,000.0,033.7,026.1,015.7,0000.0,0007.86,0003.50,0002.59
2024-04-22 21:06:00,SystemResetWarning,0823.7,5.02,000.00,024.8,021.7,000.0,033.7,025.5,014.7,0000.0,0008.06,0003.50,0002.57
2024-04-22 21:07:00,SystemResetWarning,0823.7,5.00,000.00,024.7,022.1,000.0,033.6,025.6,012.4,0000.0,0007.88,0003.45,0002.54
2024-04-22 21:08:00,SystemResetWarning,0823.8,4.99,000.00,024.7,022.5,000.0,033.4,025.9,012.6,0000.0,0007.68,0003.36,0002.49
2024-04-22 21:09:00,SystemResetWarning,0823.8,5.01,000.00,024.7,022.9,000.0,033.4,026.2,014.8,0000.0,0007.71,0003.32,0002.46
2024-04-22 21:10:00,SystemResetWarning,0823.7,5.00,000.00,024.8,023.2,000.0,033.3,026.5,013.7,0000.0,0007.70,0003.30,0002.45
2024-04-22 21:11:00,SystemResetWarning,0823.7,5.00,000.00,024.9,023.5,000.0,033.3,026.6,014.2,0000.0,0007.90,0003.27,0002.42
2024-04-22 21:12:00,SystemResetWarning,0823.8,5.00,000.00,024.9,023.8,000.0,033.3,026.8,014.8,0000.0,0007.47,0003.22,0002.38
2024-04-22 21:13:00,SystemResetWarning,0823.8,5.00,000.00,025.0,024.0,000.0,033.3,026.9,015.6,0000.0,0007.57,0003.18,0002.35
2024-04-22 21:14:00,SystemResetWarning,0823.7,4.99,000.00,025.1,024.2,000.0,033.3,027.0,016.1,0000.0,0007.82,0003.12,0002.30
2024-04-22 21:15:00,SystemResetWarning,0823.6,5.01,000.00,025.2,024.4,000.0,033.3,027.1,016.3,0000.0,0007.97,0003.13,0002.26
2024-04-22 21:16:00,SystemResetWarning,0823.6,5.00,000.00,025.3,024.6,000.0,033.4,027.2,016.6,0000.0,0008.37,0003.12,0002.21
2024-04-22 21:17:00,SystemResetWarning,0823.6,5.01,000.00,025.3,024.7,000.0,033.4,027.3,017.2,0000.0,0008.37,0003.05,0002.16
2024-04-22 21:18:00,SystemResetWarning,0823.5,5.00,000.00,025.4,024.9,000.0,033.5,027.4,016.6,0000.0,0008.56,0003.08,0002.14
2024-04-22 21:19:00,SystemResetWarning,0823.4,5.00,000.00,025.5,025.0,000.0,033.5,027.5,015.4,0000.0,0009.59,0003.08,0002.12
2024-04-22 21:20:00,SystemResetWarning,0823.5,5.00,000.00,025.5,024.5,000.0,033.6,027.1,014.8,0000.0,0010.13,0003.07,0002.10
2024-04-22 21:21:00,SystemResetWarning,0823.4,4.98,000.00,025.2,022.5,000.0,033.6,026.0,014.4,0000.0,0010.33,0003.04,0002.05
2024-04-22 21:22:00,SystemResetWarning,0823.3,5.02,000.00,024.8,021.7,000.0,033.6,025.4,013.7,0000.0,0010.16,0002.97,0002.01
2024-04-22 21:23:00,SystemResetWarning,0823.3,4.97,000.00,024.6,022.1,000.0,033.5,025.5,014.0,0000.0,0009.89,0002.94,0002.00
2024-04-22 21:24:00,SystemResetWarning,0823.3,5.01,000.00,024.6,022.4,000.0,033.4,025.8,014.0,0000.0,0009.91,0002.90,0001.98
2024-04-22 21:25:00,SystemResetWarning,0823.2,5.01,000.00,024.7,022.8,000.0,033.3,026.2,015.1,0000.0,0010.33,0002.91,0001.96
2024-04-22 21:26:00,SystemResetWarning,0823.2,4.99,000.00,024.7,023.2,000.0,033.3,026.4,014.2,0000.0,0010.10,0002.87,0001.96
2024-04-22 21:27:00,SystemResetWarning,0823.2,5.00,000.00,024.8,023.5,000.0,033.2,026.6,014.3,0000.0,0009.79,0002.85,0001.96
2024-04-22 21:28:00,SystemResetWarning,0823.2,5.00,000.00,024.9,023.7,000.0,033.2,026.7,014.4,0000.0,0009.37,0002.81,0001.96
2024-04-22 21:29:00,SystemResetWarning,0823.1,5.00,000.00,025.0,024.0,000.0,033.2,026.8,014.0,0000.0,0009.20,0002.72,0001.95
2024-04-22 21:30:00,SystemResetWarning,0823.1,5.00,000.00,025.1,024.2,000.0,033.3,026.9,014.2,0000.0,0008.13,0002.68,0001.95
2024-04-22 21:31:00,SystemResetWarning,0823.1,5.01,000.00,025.1,024.4,000.0,033.3,027.0,013.7,0000.0,0007.66,0002.68,0001.95
2024-04-22 21:32:00,SystemResetWarning,0823.0,5.01,000.00,025.2,024.5,000.0,033.3,027.2,014.0,0000.0,0008.61,0002.70,0001.96
2024-04-22 21:33:00,SystemResetWarning,0823.0,5.00,000.00,025.3,024.7,000.0,033.4,027.2,013.1,0000.0,0008.54,0002.75,0001.97
2024-04-22 21:34:00,SystemResetWarning,0822.9,5.00,000.00,025.3,024.8,000.0,033.4,027.3,014.7,0000.0,0008.61,0002.74,0001.97
2024-04-22 21:35:00,SystemResetWarning,0822.9,5.00,000.00,025.4,024.9,000.0,033.4,027.4,015.9,0000.0,0008.78,0002.69,0001.96
2024-04-22 21:36:00,SystemResetWarning,0823.0,4.99,000.00,025.5,025.0,000.0,033.5,027.5,014.6,0000.0,0008.07,0002.70,0001.95
2024-04-22 21:37:00,SystemResetWarning,0823.0,5.00,000.00,025.6,025.1,000.0,033.5,027.5,016.2,0000.0,0008.84,0002.65,0001.95
2024-04-22 21:38:00,SystemResetWarning,0823.1,5.00,000.00,025.6,024.8,000.0,033.6,027.3,016.8,0000.0,0008.76,0002.63,0001.95
2024-04-22 21:39:00,SystemResetWarning,0823.0,5.01,000.00,025.3,022.8,000.0,033.7,026.2,016.0,0000.0,0008.86,0002.63,0001.94
2024-04-22 21:40:00,SystemResetWarning,0823.0,5.01,000.00,024.9,021.6,000.0,033.7,025.5,013.5,0000.0,0009.38,0002.68,0001.94
2024-04-22 21:41:00,SystemResetWarning,0822.9,5.00,000.00,024.7,022.0,000.0,033.6,025.6,013.5,0000.0,0009.55,0002.71,0001.93
2024-04-22 21:42:00,SystemResetWarning,0822.9,5.00,000.00,024.7,022.4,000.0,033.4,025.9,014.7,0000.0,0009.41,0002.70,0001.93
2024-04-22 21:43:00,SystemResetWarning,0823.0,4.99,000.00,024.7,022.8,000.0,033.4,026.2,015.1,0000.0,0008.60,0002.69,0001.92
2024-04-22 21:44:00,SystemResetWarning,0822.9,5.00,000.00,024.8,023.2,000.0,033.3,026.5,013.7,0000.0,0008.54,0002.69,0001.91
2024-04-22 21:45:00,SystemResetWarning,0822.9,5.01,000.00,024.9,023.5,000.0,033.3,026.6,013.6,0000.0,0008.67,0002.68,0001.90
2024-04-22 21:46:00,SystemResetWarning,0823.0,5.00,000.00,024.9,023.8,000.0,033.3,026.7,013.5,0000.0,0008.74,0002.71,0001.89
2024-04-22 21:47:00,SystemResetWarning,0822.9,5.00,000.00,025.0,024.0,000.0,033.3,026.9,013.5,0000.0,0008.46,0002.71,0001.89
2024-04-22 21:48:00,SystemResetWarning,0822.9,5.00,000.00,025.1,024.2,000.0,033.3,027.0,013.5,0000.0,0007.75,0002.74,0001.89
2024-04-22 21:49:00,SystemResetWarning,0823.1,5.00,000.00,025.2,024.4,000.0,033.3,027.1,014.0,0000.0,0008.22,0002.79,0001.89
2024-04-22 21:50:00,SystemResetWarning,0823.0,5.01,000.00,025.2,024.5,000.0,033.4,027.2,013.8,0000.0,0008.56,0002.78,0001.87
2024-04-22 21:51:00,SystemResetWarning,0823.0,5.00,000.00,025.3,024.7,000.0,033.4,027.2,014.0,0000.0,0008.43,0002.69,0001.85
2024-04-22 21:52:00,SystemResetWarning,0822.9,5.00,000.00,025.4,024.8,000.0,033.4,027.3,014.2,0000.0,0008.71,0002.65,0001.84
2024-04-22 21:53:00,SystemResetWarning,0822.9,5.00,000.00,025.5,024.9,000.0,033.5,027.4,014.0,0000.0,0008.72,0002.64,0001.83
2024-04-22 21:54:00,SystemResetWarning,0823.0,5.00,000.00,025.5,025.0,000.0,033.5,027.5,012.9,0000.0,0008.50,0002.68,0001.84
2024-04-22 21:55:00,SystemResetWarning,0822.9,4.99,000.00,025.6,024.8,000.0,033.6,027.3,013.2,0000.0,0008.09,0002.68,0001.84
2024-04-22 21:56:00,SystemResetWarning,0822.9,4.98,000.00,025.3,022.9,000.0,033.6,026.2,014.4,0000.0,0007.95,0002.71,0001.86
2024-04-22 21:57:00,SystemResetWarning,0822.9,5.03,000.00,024.9,021.6,000.0,033.6,025.5,015.7,0000.0,0007.66,0002.73,0001.87
2024-04-22 21:58:00,SystemResetWarning,0822.9,5.00,000.00,024.7,022.0,000.0,033.6,025.6,016.1,0000.0,0007.45,0002.72,0001.86
2024-04-22 21:59:00,SystemResetWarning,0822.9,5.00,000.00,024.7,022.4,000.0,033.4,025.8,014.9,0000.0,0007.43,0002.69,0001.84
